Regional Weather Roundup
Issued by NWS

Home | Current Version | Previous Version | Graphics & Text | Print | Product List | Glossary On
Versions: 1 2 3 4 5 6 7 8 9 10 11 12 13 14 15 16 17 18 19 20 21 22 23 24 25 26 27
000
ASUS43 KDMX 251407
RWRIA

WEATHER ROUNDUP FOR IOWA
NATIONAL WEATHER SERVICE DES MOINES IA
900 AM CDT SAT OCT 25 2014

NOTE: "FAIR" INDICATES FEW OR NO CLOUDS BELOW 12,000 FEET WITH NO
SIGNIFICANT WEATHER AND/OR OBSTRUCTIONS TO VISIBILITY.

* - THESE STATIONS ARE NOT NWS STATIONS...THUS NOT UNDER NWS
QUALITY CONTROL.  THEY ALSO DO NOT REPORT WEATHER SUCH
AS PRECIPITATION OR FOG.

IAZ001>003-012>014-020>022-031>034-043>046-251500-
   NORTHWEST IOWA

CITY           SKY/WX    TMP DP  RH WIND       PRES   REMARKS
CARROLL *      SUNNY     52  45  76 NW6       30.11R
CHEROKEE *     SUNNY     43  43 100 CALM      30.12R
DENISON *      SUNNY     46  46 100 CALM      30.10R
LE MARS *      SUNNY     43  43 100 CALM      30.13R
ORANGE CITY *  SUNNY     46  41  81 NW5       30.12R
SHELDON *      SUNNY     45  43  93 NW3       30.11R
SIOUX CITY     SUNNY     48  44  86 NW5       30.13R
SPENCER        SUNNY     47  41  80 W3        30.11R
STORM LAKE *   SUNNY     54  39  58 N7        30.12R
$$

IAZ055>058-069>071-079>083-090>094-251500-
   SOUTHWEST IOWA

CITY           SKY/WX    TMP DP  RH WIND       PRES   REMARKS
AUDUBON *      SUNNY     50  45  81 CALM      30.11R
CLARINDA *     SUNNY     48  48 100 CALM      30.12R FOG
COUNCIL BLFS * SUNNY     54  48  82 CALM      30.10R
CRESTON *      SUNNY     57  43  58 NE12      30.10R
HARLAN  *      SUNNY     50  48  93 N5        30.14R
LAMONI           N/A     56  48  74 N8        30.08R
RED OAK *      SUNNY     46  46 100 CALM      30.10R FOG
SHENANDOAH *   SUNNY     46  46 100 CALM      30.11R FOG
$$

IAZ047>049-059>061-072>074-084-251500-
   CENTRAL IOWA

CITY           SKY/WX    TMP DP  RH WIND       PRES   REMARKS
AMES           SUNNY     52  43  71 N8        30.09R
ANKENY *       SUNNY     54  45  71 N6        30.08R
CHARITON *     SUNNY     54  50  87 N7        30.07R
DES MOINES     SUNNY     55  46  71 NW5       30.08R
GRINNELL*      SUNNY     54  45  71 N7        30.06R
KNOXVILLE *    SUNNY     52  48  87 NW5       30.06R
MARSHALLTOWN   SUNNY     49  45  86 NW5       30.07R
PELLA *        SUNNY     54  48  82 N5        30.07R
PERRY *          N/A     50  46  87 NW3       30.10R
$$

IAZ004>006-015-016-023>025-035-036-251500-
   NORTH CENTRAL IOWA

CITY           SKY/WX    TMP DP  RH WIND       PRES   REMARKS
ALGONA *       SUNNY     52  39  62 NW7       30.10R
CLARION *      SUNNY     48  45  87 NW3       30.09R
ESTHERVILLE    SUNNY     50  37  61 NW7       30.10R
FORT DODGE *   SUNNY     50  41  71 NW3       30.10R
MASON CITY     SUNNY     51  41  68 NW8       30.08R
FOREST CITY *  SUNNY     52  41  66 NW7       30.07R
IOWA FALLS *     N/A     50  45  81 NW5       30.08R
$$

IAZ007>011-017>019-026>030-037>042-050>054-066-251500-
   NORTHEAST IOWA

CITY           SKY/WX    TMP DP  RH WIND       PRES   REMARKS
CEDAR RAPIDS   SUNNY     51  49  92 NW7       30.04R
CHARLES CITY * SUNNY     48  45  87 NW6       30.05R
CLINTON *      SUNNY     54  52  94 W5        30.02R
DECORAH *      SUNNY     50  43  76 VRB3      30.02R
DUBUQUE        SUNNY     58  44  60 NW10      30.01R
MONTICELLO *   SUNNY     52  52 100 CALM      30.02R
OELWEIN *      SUNNY     50  46  87 NW8       30.05R
WATERLOO       SUNNY     50  44  80 W5        30.05R
$$

IAZ064-065-067-068-078-251500-
   EAST CENTRAL IOWA

CITY           SKY/WX    TMP DP  RH WIND       PRES   REMARKS
DAVENPORT      MOSUNNY   52  50  93 NW7       30.01R FOG
IOWA CITY      SUNNY     54  49  83 NW6       30.04R
MT. PLEASANT * SUNNY     54  54 100 NW6       30.03R
MUSCATINE *    MOSUNNY   55  50  82 N12       30.03R
QUAD CITIES    SUNNY     56  52  86 VRB3      30.02R
$$

IAZ062-063-075>077-085>089-095>099-251500-
   SOUTHEAST IOWA

CITY           SKY/WX    TMP DP  RH WIND       PRES   REMARKS
BURLINGTON     FOG       53  52  96 NW3       30.03R VSB 1/2
FAIRFIELD *    SUNNY     54  50  87 N6        30.05R
FORT MADISON * SUNNY     55  55 100 W3        30.04R FOG
KEOKUK *       FOG       54  54 100 W3        30.03R VSB 1/2
OSKALOOSA *      N/A     52  52 100 N6        30.06R
CENTERVILLE *  SUNNY     54  54 100 NW6       30.08R
OTTUMWA        SUNNY     54  48  80 NW6       30.05R
WASHINGTON *   SUNNY     55  55 100 N8        30.04R
$$

ABBREVIATIONS USED IN REMARKS
   TC - TEMPERATURES IN CELSIUS
  WCI - WIND CHILL INDEX
   HX - HEAT INDEX
  VSB - VISIBILITY
$$




USA.gov is the U.S. government's official web portal to all federal, state and local government web resources and services.